Location: Rodanthe
(35.5920°N, 75.4670°W)
Time: 03:51:26
(UTC-04:00)

ISS - All Passes

Search period start: 24 April 2014 00:00
Search period end: 04 May 2014 00:00
Orbit: 413 x 418 km, 51.6° (Epoch: 24 April)

Date Brightness Start Highest point End Pass type
(mag) Time Alt. Az. Time Alt. Az. Time Alt. Az.
24 Apr - 13:21:18 10° SW 13:24:37 86° SE 13:27:57 10° NE daylight
24 Apr - 14:59:58 10° WNW 15:01:44 14° NNW 15:03:30 10° N daylight
24 Apr - 19:52:44 10° NNW 19:55:41 28° NE 19:58:37 10° E daylight
24 Apr - 21:29:31 10° WNW 21:32:19 25° SW 21:35:07 10° S visible
25 Apr - 12:32:42 10° SSW 12:35:51 42° SE 12:39:02 10° ENE daylight
25 Apr - 14:10:10 10° W 14:12:42 20° NNW 14:15:14 10° NNE daylight
25 Apr - 19:04:16 10° NNW 19:06:41 18° NNE 19:09:06 10° ENE daylight
25 Apr - 20:40:20 10° WNW 20:43:35 49° SW 20:46:48 10° SSE visible
26 Apr - 11:44:28 10° S 11:47:04 22° SE 11:49:42 10° ENE daylight
26 Apr - 13:20:39 10° W 13:23:39 31° NW 13:26:40 10° NNE daylight
26 Apr - 18:15:58 10° N 18:17:32 13° NNE 18:19:05 10° NE daylight
26 Apr - 19:51:20 10° NW 19:54:41 82° NE 19:58:01 10° SE daylight
27 Apr - 10:57:05 10° SSE 10:58:16 12° SE 10:59:26 10° ESE daylight
27 Apr - 12:31:19 10° WSW 12:34:34 55° NW 12:37:51 10° NE daylight
27 Apr - 14:11:19 10° NNW 14:11:53 10° NNW 14:12:27 10° NNW daylight
27 Apr - 19:02:25 10° NW 19:05:38 42° NE 19:08:49 10° ESE daylight
27 Apr - 20:40:01 10° W 20:42:03 15° SW 20:44:04 10° SSW visible
28 Apr - 11:42:11 10° SW 11:45:29 74° SE 11:48:48 10° NE daylight
28 Apr - 13:20:34 10° WNW 13:22:31 15° NNW 13:24:28 10° N daylight
28 Apr - 18:13:34 10° NNW 18:16:25 25° NNE 18:19:14 10° E daylight
28 Apr - 19:50:09 10° WNW 19:53:05 29° SW 19:56:00 10° SSE daylight
29 Apr - 10:53:19 10° SSW 10:56:23 36° SE 10:59:27 10° ENE daylight
29 Apr - 12:30:29 10° W 12:33:08 22° NNW 12:35:47 10° NNE daylight
29 Apr - 17:24:48 10° NNW 17:27:02 17° NNE 17:29:15 10° ENE daylight
29 Apr - 19:00:41 10° NW 19:03:58 58° SW 19:07:13 10° SE daylight
30 Apr - 10:04:51 10° S 10:07:15 19° SE 10:09:39 10° E daylight
30 Apr - 11:40:39 10° WSW 11:43:44 35° NW 11:46:49 10° NNE daylight
30 Apr - 16:36:17 10° N 16:37:29 12° NNE 16:38:42 10° NE daylight
30 Apr - 18:11:22 10° NW 18:14:41 69° NE 18:17:59 10° SE daylight
01 May - 10:51:01 10° SW 10:54:19 66° NW 10:57:37 10° NE daylight
01 May - 12:30:26 10° NW 12:31:31 11° NNW 12:32:36 10° N daylight
01 May - 17:22:08 10° NNW 17:25:15 36° NE 17:28:21 10° ESE daylight
01 May - 18:59:22 10° W 19:01:42 18° SW 19:04:02 10° S daylight
02 May - 10:01:37 10° SW 10:04:53 61° SE 10:08:09 10° NE daylight
02 May - 11:39:39 10° WNW 11:41:48 16° NNW 11:43:59 10° NNE daylight
02 May - 16:32:58 10° NNW 16:35:39 22° NNE 16:38:19 10° E daylight
02 May - 18:09:19 10° WNW 18:12:22 34° SW 18:15:24 10° SSE daylight
03 May - 09:12:30 10° SSW 09:15:25 29° SE 09:18:22 10° ENE daylight
03 May - 10:49:17 10° W 10:52:05 24° NNW 10:54:52 10° NNE daylight
03 May - 15:43:54 10° N 15:45:53 15° NNE 15:47:51 10° ENE daylight
03 May - 17:19:33 10° NW 17:22:52 72° SW 17:26:09 10° SE daylight
